This demonstration page uses our WeatherBlox Daily Observations layout. Learn more.

Left ArrowRight Arrow

Hourly Observations for March 13, 2021

Temp ( °F °C ) Dew Point ( °F °C ) Humidity (%) Winds ( mph kmh ) Pressure ( in mb ) Visibility ( mi km ) Precip ( " mm )
12:54 am 00:54 Cloudy 44 6.7 27 -2.8 51 51 ENE 9 15 30.41 1030 10 16 N/A
1:54 am 01:54 Cloudy 44 6.7 27 -2.8 51 51 E 9 15 30.42 1030 10 16 N/A
2:54 am 02:54 Cloudy 43 6.1 27 -2.8 53 53 E 8 13 30.40 1029 10 16 N/A
3:54 am 03:54 Cloudy 43 6.1 28 -2.2 56 56 ENE 7 11 30.36 1028 10 16 N/A
4:54 am 04:54 Cloudy 43 6.1 28 -2.2 56 56 E 6 9 30.36 1028 10 16 N/A
5:54 am 05:54 Cloudy 44 6.7 28 -2.2 53 53 E 8 13 30.36 1028 10 16 N/A
6:54 am 06:54 Cloudy 44 6.7 28 -2.2 53 53 E 8 13 30.35 1028 10 16 N/A
7:54 am 07:54 Cloudy 45 7.2 28 -2.2 52 52 ESE 9 15 30.38 1029 10 16 N/A
8:54 am 08:54 Cloudy 46 7.8 28 -2.2 50 50 ESE 10 17 30.37 1028 10 16 N/A
9:54 am 09:54 Sunny 49 9.4 29 -1.7 46 46 E 9 15 30.35 1028 10 16 N/A
10:54 am 10:54 Mostly Cloudy 51 10.6 29 -1.7 43 43 ESE 10 17 30.35 1028 10 16 N/A
11:54 am 11:54 Cloudy 51 10.6 30 -1.1 44 44 ESE 14 22 30.32 1027 10 16 N/A
12:54 pm 12:54 Cloudy 52 11.1 30 -1.1 43 43 E 10 17 30.31 1026 10 16 N/A
1:54 pm 13:54 Cloudy with Light Rain 51 10.6 37 2.8 59 59 E 10 17 30.27 1025 10 16 0.00 0.00
2:54 pm 14:54 Cloudy with Light Rain 48 8.9 40 4.4 74 74 ESE 9 15 30.23 1024 6 10 0.01 0.25
3:04 pm 15:04 Cloudy with Light Rain 48 8.9 41 5 77 77 ESE 7 11 30.24 1024 9 14 0.01 0.25
3:54 pm 15:54 Cloudy with Light Rain 49 9.4 40 4.4 71 71 ESE 10 17 30.25 1024 5 8 0.02 0.51
4:54 pm 16:54 Cloudy with Light Rain 46 7.8 41 5 83 83 E 10 17 30.20 1023 4 6 0.11 2.79
5:02 pm 17:02 Cloudy with Rain 46 7.8 41 5 83 83 E 8 13 30.21 1023 3 5 0.01 0.25
5:10 pm 17:10 Cloudy with Light Rain 46 7.8 42 5.6 86 86 E 6 9 30.21 1023 4 6 0.02 0.51
5:54 pm 17:54 Cloudy with Light Rain 46 7.8 41 5 83 83 ENE 14 22 30.17 1022 5 8 0.06 1.52
6:54 pm 18:54 Cloudy with Light Rain 47 8.3 42 5.6 83 83 ENE 13 20 30.17 1022 8 13 0.05 1.27
7:54 pm 19:54 Cloudy with Heavy Rain 46 7.8 42 5.6 86 86 NE 6 9 30.22 1024 2 3 0.12 3.05
8:03 pm 20:03 Cloudy with Heavy Rain 46 7.8 43 6.1 89 89 E 8 13 30.23 1024 2 3 0.11 2.79
8:09 pm 20:09 Cloudy with Heavy Rain 46 7.8 43 6.1 89 89 ENE 10 17 30.22 1023 2 3 0.18 4.57
8:27 pm 20:27 Cloudy with Light Rain 46 7.8 43 6.1 89 89 NNE 9 15 30.22 1023 3 5 0.26 6.60
8:54 pm 20:54 Cloudy with Rain 46 7.8 43 6.1 89 89 NE 15 24 30.19 1022 3 4 0.34 8.64
9:08 pm 21:08 Cloudy with Light Rain 46 7.8 43 6.1 89 89 NE 16 26 30.19 1022 3 5 0.03 0.76
9:54 pm 21:54 Cloudy with Light Rain 46 7.8 42 5.6 86 86 ENE 21 33 30.14 1021 7 11 0.06 1.52
10:54 pm 22:54 Cloudy 46 7.8 41 5 83 83 E 20 31 30.13 1020 10 16 0.00 0.00
11:07 pm 23:07 Cloudy 46 7.8 41 5 83 83 E 14 22 30.15 1021 10 16 N/A
11:54 pm 23:54 Cloudy with Rain 45 7.2 41 5 86 86 E 23 37 30.14 1021 5 8 0.00 0.00

Powered by AerisWeather